Regional Weather Roundup
Issued by NWS Glasgow, MT

Home | Current Version | Previous Version | Text Only | Print | Product List | Glossary On
Versions: 1 2 3 4 5 6 7 8 9 10 11 12 13 14 15 16 17 18 19 20 21 22 23 24 25 26 27 28 29 30 31
000
ASUS45 KGGW 221415
RWRGGW
HOURLY WEATHER ROUNDUP FOR NORTHEAST MONTANA
NATIONAL WEATHER SERVICE GLASGOW MONTANA
800 AM MDT WED OCT 22 2014

NOTE: "FAIR" INDICATES FEW OR NO CLOUDS BELOW 12,000 FEET WITH NO
SIGNIFICANT WEATHER AND/OR OBSTRUCTIONS TO VISISBILITY.

NORTHEAST MONTANA


CITY           SKY/WX    TMP DP  RH WIND       PRES   REMARKS
GLASGOW        MOCLDY    47  36  65 W12       29.82R
PLENTYWOOD       N/A     45  42  89 W6          N/A
WOLF POINT     MOCLDY    51  39  63 W12       29.82R
JORDAN           N/A     41  34  76 W9        29.90S
WINNETT          N/A     37  32  82 SW3         N/A
SIDNEY         CLEAR     46  39  76 S5        29.85R
GLENDIVE       CLEAR     45  37  76 SW12      29.89S
MALTA            N/A     48  37  65 W12         N/A
SCOBEY           N/A     48  41  76 SW14G20   29.77

FORT PECK REPORTS


CITY           SKY/WX    TMP DP  RH WIND       PRES   REMARKS
FORT PECK        N/A     49  35  58 SW21G29     N/A
THE PINES        N/A     48  34  58 SW10        N/A

SOUTHEAST MONTANA


CITY           SKY/WX    TMP DP  RH WIND       PRES   REMARKS
BILLINGS       CLEAR     44  28  53 SW13      30.00R
MILES CITY     CLEAR     42  34  73 SW13      29.94S
BAKER          CLEAR     42  37  82 W10       29.93R
LIVINGSTON     CLEAR     44  26  49 SW22G38   30.05R

CENTRAL MONTANA


CITY           SKY/WX    TMP DP  RH WIND       PRES   REMARKS
HAVRE          CLEAR     44  36  73 SW18      29.88R
LEWISTOWN      CLEAR     40  31  70 SW12      29.96S
GREAT FALLS    CLEAR     42  33  70 SW16      29.94R
CUT BANK       CLEAR     44  30  57 W23       29.88S
HELENA         CLEAR     37  30  75 SW3       30.04S
BUTTE          CLEAR     28  26  92 S5        30.10S
BOZEMAN        CLEAR     30  26  85 CALM      30.10R

WESTERN MONTANA


CITY           SKY/WX    TMP DP  RH WIND       PRES   REMARKS
MISSOULA       PTCLDY    36  36 100 CALM      30.07S
KALISPELL      NOT AVBL

NORTH DAKOTA


CITY           SKY/WX    TMP DP  RH WIND       PRES   REMARKS
WILLISTON      CLEAR     48  41  76 SW10      29.81R
DICKINSON      MOCLDY    47  41  80 W13       29.85R
MINOT          MOCLDY    53  44  71 SW21G31   29.72R
BISMARCK       CLOUDY    56  46  69 W14G22    29.82R

SOUTHERN SASKATCHEWAN


CITY           SKY/WX    TMP DP  RH WIND       PRES   REMARKS
REGINA         PTCLDY    43  43 100 W9        29.67
MOOSE JAW      MOCLDY    46  45  93 NW10      29.68S
ESTEVAN        PTCLDY    46  45  93 SW10      29.72R
SWIFT CURRENT  LGT RAIN  46  45  93 W15G21    29.76R




USA.gov is the U.S. government's official web portal to all federal, state and local government web resources and services.